Location: *
(46.1833°N, 22.7667°E)
Time: 10:16:36
(UTC+00:00)

Cosmos 2237 Rocket - Pass Details

Date: 17 September 2019
Orbit: 833 x 851 km, 71.0° (Epoch: 13 October)

Event Time Altitude Azimuth Distance (km) Brightness Sun altitude
Rises 19:58:31 0° 321° (NW) 3,425 6.5 -32.1°
Reaches altitude 10° 20:01:34 10° 305° (NW) 2,485 5.5 -32.5°
Maximum altitude 20:05:36 20° 260° (W) 1,857 4.2 -32.9°
Enters shadow 20:06:42 19° 245° (WSW) 1,909 4.1 -33.1°
